Keene, NH

7:52 PM EST on December 14, 2017 (GMT -0500)
Dillant-Hopkins

Weather History for KEEN - August, 2013

Change the Weather History Date:

Thursday, August 29, 2013

  Actual Average Record
Temperature  
Mean Temperature 66 °F -  
Max Temperature 69 °F 80 °F 97 °F (1953)
Min Temperature 62 °F 56 °F 35 °F (1982)
Growing Degree Days 16 (Base 50)    
Moisture  
Dew Point 57 °F    
Average Humidity 73    
Maximum Humidity 83    
Minimum Humidity 64    
Precipitation  
Precipitation 0.24 in - - ()
Sea Level Pressure  
Sea Level Pressure 30.04 in    
Wind  
Wind Speed 3 mph (ENE)    
Max Wind Speed 10 mph    
Max Gust Speed -    
Visibility 9 miles    
Events Thunderstorm    
Averages and records for this station are not official NWS values.
T = Trace of Precipitation, MM = Missing Value Source: NWS Daily Summary

Daily Weather History Graph

Daily Weather History Graph

Search for Another Location

Airport or City:

Trip Planner

Search our weather history database for the weather conditions in past years. The results will help you decide how hot, cold, wet, or windy it might be!

Date:

Astronomy

Aug. 29, 2013 Rise Set
Actual Time 6:10 AM EDT 7:28 PM EDT
Civil Twilight 5:41 AM EDT 7:57 PM EDT
Nautical Twilight 5:05 AM EDT 8:32 PM EDT
Astronomical Twilight 4:28 AM EDT 9:09 PM EDT
Moon No Moon Rise 2:59 PM EDT (8/29)
Length of Visible Light 14h 16m
Length of Day
13h 17m
Last Quarter, 38% of the Moon is Illuminated
Aug 29
Last Quarter
Sep 5
New
Sep 12
First Quarter
Sep 19
Full
Sep 26
Last Quarter

Hourly Weather History & Observations

Time (EDT) Temp. Dew Point Humidity Pressure Visibility Wind Dir Wind Speed Gust Speed Precip Events Conditions
12:15 AM 66.2 °F 59.0 °F 78% 29.98 in 9.0 mi ENE 3.5 mph - 0.03 in Thunderstorm Mostly Cloudy
12:35 AM 66.2 °F 57.2 °F 73% 29.97 in 9.0 mi South 3.5 mph - 0.07 in   Mostly Cloudy
12:55 AM 64.4 °F 57.2 °F 77% 29.98 in 10.0 mi WSW 6.9 mph - 0.12 in   Overcast
1:35 AM 64.4 °F 57.2 °F 77% 29.96 in 7.0 mi Calm Calm - 0.11 in   Overcast
1:55 AM 64.4 °F 57.2 °F 77% 29.96 in 9.0 mi Calm Calm - 0.12 in   Scattered Clouds
2:16 AM 64.4 °F 57.2 °F 77% 29.96 in 10.0 mi Calm Calm - N/A   Clear
2:35 AM 64.4 °F 57.2 °F 77% 29.96 in 10.0 mi Calm Calm - N/A   Clear
2:55 AM 64.4 °F 57.2 °F 77% 29.97 in 7.0 mi Calm Calm - N/A   Scattered Clouds
3:15 AM 64.4 °F 57.2 °F 77% 29.96 in 5.0 mi Calm Calm - N/A   Scattered Clouds
3:35 AM 62.6 °F 57.2 °F 82% 29.97 in 7.0 mi NE 3.5 mph - N/A   Mostly Cloudy
3:55 AM 64.4 °F 57.2 °F 77% 29.98 in 10.0 mi NNE 3.5 mph - N/A   Overcast
4:15 AM 64.4 °F 57.2 °F 77% 29.98 in 10.0 mi NNE 5.8 mph - N/A   Overcast
4:35 AM 64.4 °F 57.2 °F 77% 29.99 in 10.0 mi Calm Calm - N/A   Mostly Cloudy
4:55 AM 62.6 °F 57.2 °F 82% 29.99 in 9.0 mi Calm Calm - N/A   Overcast
5:15 AM 62.6 °F 57.2 °F 82% 30.00 in 8.0 mi Calm Calm - N/A   Overcast
5:35 AM 62.6 °F 57.2 °F 82% 30.01 in 7.0 mi Calm Calm - N/A   Mostly Cloudy
5:55 AM 62.6 °F 55.4 °F 77% 30.01 in 3.0 mi Calm Calm - N/A   Scattered Clouds
6:15 AM 64.4 °F 57.2 °F 77% 30.02 in 10.0 mi Calm Calm - N/A   Overcast
6:35 AM 64.4 °F 57.2 °F 77% 30.03 in 6.0 mi Calm Calm - N/A   Overcast
6:55 AM 64.4 °F 57.2 °F 77% 30.03 in 8.0 mi Calm Calm - N/A   Overcast
7:15 AM 64.4 °F 57.2 °F 77% 30.04 in 7.0 mi Calm Calm - N/A   Overcast
7:35 AM 64.4 °F 57.2 °F 77% 30.05 in 5.0 mi Calm Calm - N/A   Overcast
7:55 AM 64.4 °F 59.0 °F 83% 30.05 in 9.0 mi Calm Calm - N/A   Overcast
8:15 AM 66.2 °F 57.2 °F 73% 30.05 in 9.0 mi Calm Calm - N/A   Overcast
8:35 AM 66.2 °F 57.2 °F 73% 30.06 in 10.0 mi NE 3.5 mph - N/A   Overcast
8:55 AM 66.2 °F 57.2 °F 73% 30.06 in 10.0 mi Calm Calm - N/A   Overcast
9:15 AM 66.2 °F 57.2 °F 73% 30.06 in 10.0 mi NE 3.5 mph - N/A   Overcast
9:36 AM 66.2 °F 57.2 °F 73% 30.07 in 10.0 mi Calm Calm - N/A   Overcast
9:55 AM 68.0 °F 57.2 °F 68% 30.07 in 10.0 mi NE 4.6 mph - N/A   Overcast
10:15 AM 68.0 °F 57.2 °F 68% 30.07 in 10.0 mi NNE 3.5 mph - N/A   Overcast
10:35 AM 69.8 °F 57.2 °F 64% 30.07 in 10.0 mi NNE 3.5 mph - N/A   Overcast
10:55 AM 69.8 °F 59.0 °F 68% 30.07 in 10.0 mi NW 4.6 mph - N/A   Overcast
11:15 AM 69.8 °F 59.0 °F 68% 30.07 in 10.0 mi North 3.5 mph - N/A   Overcast
11:35 AM 69.8 °F 57.2 °F 64% 30.06 in 10.0 mi NW 3.5 mph - N/A   Overcast
11:55 AM 69.8 °F 57.2 °F 64% 30.06 in 10.0 mi ENE 4.6 mph - N/A   Overcast
12:15 PM 69.8 °F 57.2 °F 64% 30.06 in 10.0 mi ENE 6.9 mph - N/A   Overcast
12:35 PM 69.8 °F 59.0 °F 68% 30.06 in 10.0 mi ENE 10.4 mph - N/A   Overcast
12:55 PM 69.8 °F 57.2 °F 64% 30.06 in 10.0 mi East 6.9 mph - N/A   Overcast
1:15 PM 69.8 °F 57.2 °F 64% 30.07 in 10.0 mi ENE 9.2 mph - N/A   Overcast
1:35 PM 68.0 °F 57.2 °F 68% 30.07 in 10.0 mi East 6.9 mph - N/A   Overcast
1:55 PM 69.8 °F 57.2 °F 64% 30.06 in 10.0 mi East 9.2 mph - N/A   Overcast
2:15 PM 68.0 °F 57.2 °F 68% 30.06 in 10.0 mi East 3.5 mph - N/A   Overcast
2:35 PM 68.0 °F 57.2 °F 68% 30.05 in 10.0 mi NE 9.2 mph - N/A   Overcast
2:55 PM 69.8 °F 57.2 °F 64% 30.06 in 10.0 mi East 4.6 mph - N/A   Overcast
3:15 PM 68.0 °F 57.2 °F 68% 30.05 in 10.0 mi NNE 6.9 mph - N/A   Overcast
3:35 PM 68.0 °F 57.2 °F 68% 30.05 in 10.0 mi NE 6.9 mph - N/A   Overcast
3:55 PM 68.0 °F 57.2 °F 68% 30.05 in 10.0 mi ENE 8.1 mph - N/A   Overcast
4:15 PM 68.0 °F 57.2 °F 68% 30.05 in 10.0 mi ENE 8.1 mph - N/A   Overcast
4:35 PM 66.2 °F 57.2 °F 73% 30.05 in 10.0 mi ENE 8.1 mph - N/A   Overcast
4:55 PM 66.2 °F 55.4 °F 68% 30.05 in 10.0 mi East 3.5 mph - N/A   Overcast
5:15 PM 66.2 °F 57.2 °F 73% 30.05 in 10.0 mi East 4.6 mph - N/A   Overcast
5:35 PM 66.2 °F 57.2 °F 73% 30.05 in 10.0 mi ENE 5.8 mph - N/A   Overcast
5:55 PM 66.2 °F 57.2 °F 73% 30.05 in 10.0 mi Calm Calm - N/A   Overcast
6:15 PM 66.2 °F 57.2 °F 73% 30.05 in 10.0 mi Calm Calm - N/A   Overcast
6:35 PM 66.2 °F 55.4 °F 68% 30.05 in 10.0 mi Calm Calm - N/A   Overcast
6:55 PM 66.2 °F 55.4 °F 68% 30.05 in 10.0 mi South 3.5 mph - N/A   Overcast
7:15 PM 64.4 °F 55.4 °F 73% 30.05 in 10.0 mi Calm Calm - N/A   Overcast
7:35 PM 64.4 °F 55.4 °F 73% 30.06 in 10.0 mi Calm Calm - N/A   Overcast
7:55 PM 64.4 °F 55.4 °F 73% 30.05 in 10.0 mi Calm Calm - N/A   Overcast
8:15 PM 64.4 °F 55.4 °F 73% 30.06 in 10.0 mi South 3.5 mph - N/A   Overcast
8:35 PM 64.4 °F 55.4 °F 73% 30.07 in 10.0 mi Calm Calm - N/A   Overcast
8:55 PM 64.4 °F 55.4 °F 73% 30.07 in 10.0 mi Calm Calm - N/A   Overcast
9:15 PM 64.4 °F 55.4 °F 73% 30.07 in 6.0 mi Calm Calm - N/A   Overcast
9:35 PM 64.4 °F 55.4 °F 73% 30.07 in 10.0 mi Calm Calm - N/A   Overcast
9:55 PM 64.4 °F 55.4 °F 73% 30.07 in 10.0 mi Calm Calm - N/A   Overcast
10:15 PM 64.4 °F 55.4 °F 73% 30.06 in 10.0 mi Calm Calm - N/A   Overcast
10:35 PM 64.4 °F 55.4 °F 73% 30.05 in 10.0 mi South 3.5 mph - N/A   Overcast
10:55 PM 62.6 °F 55.4 °F 77% 30.06 in 10.0 mi Calm Calm - N/A   Overcast
11:15 PM 62.6 °F 55.4 °F 77% 30.04 in 10.0 mi South 3.5 mph - N/A   Overcast
11:35 PM 62.6 °F 55.4 °F 77% 30.04 in 10.0 mi SSW 3.5 mph - N/A   Overcast
11:55 PM 62.6 °F 55.4 °F 77% 30.04 in 10.0 mi Calm Calm - N/A   Overcast